Regional Weather Roundup
Issued by NWS Newport/Morehead, NC

Current Version | Previous Version | Text Only | Print | Product List | Glossary On
Versions: 1 2 3 4 5 6 7 8 9 10 11 12 13 14 15 16 17 18 19 20 21 22 23 24 25 26 27 28 29 30 31 32 33 34 35 36 37 38 39 40 41 42 43 44 45 46 47 48 49 50
000
ASUS42 KMHX 202325
RWRMHX
WEATHER ROUNDUP FOR EASTERN NORTH CAROLINA
NATIONAL WEATHER SERVICE NEWPORT/MOREHEAD CITY NC
700 PM EDT FRI OCT 20 2017

NOTE: "FAIR" INDICATES FEW OR NO CLOUDS BELOW 12,000 FEET
WITH NO SIGNIFICANT WEATHER AND/OR OBSTRUCTIONS TO VISIBILITY

NCZ015>017-031-032-045>047-102-103-210000-
NORTH COAST

CITY           SKY/WX    TMP DP  RH WIND       PRES   REMARKS
EDENTON        CLEAR     65  59  79 CALM      30.21R
ELIZABETH CITY CLEAR     65  57  75 CALM      30.20R
KITTY HAWK     CLEAR     63  56  78 CALM      30.19R
MANTEO         CLEAR    N/A N/A N/A CALM      30.21R

$$

NCZ045>047-081-094-103-104-210000-
CENTRAL COAST

CITY           SKY/WX    TMP DP  RH WIND       PRES   REMARKS
FRISCO         CLEAR     62  58  86 CALM      30.20R

$$

NCZ095-097-098-100-101-210000-
SOUTHERN COAST

CITY           SKY/WX    TMP DP  RH WIND       PRES   REMARKS
BEAUFORT       CLEAR     64  56  75 CALM      30.20R
CEDAR ISLAND   NOT AVBL
JACKSONVILLE   CLEAR     68  58  70 S6        30.18R
PINEY ISLAND     N/A    N/A N/A N/A S5        30.19R
WILMINGTON     CLEAR     67  55  65 S3        30.19R


$$

NCZ011>013-027>030-043-044-078>080-089-090>093-098-210000-
COASTAL PLAIN

CITY           SKY/WX    TMP DP  RH WIND       PRES   REMARKS
AHOSKIE        CLEAR     62  56  83 CALM      30.21R
CLINTON        CLEAR     67  56  67 CALM      30.20R
ELIZABETHTOWN  NOT AVBL
GOLDSBORO      CLEAR     67  53  61 CALM      30.17S
GREENVILLE     CLEAR     63  54  72 CALM      30.21R
HAVELOCK       CLEAR     67  57  70 CALM      30.20R
KENANSVILLE    CLEAR     63  52  67 CALM      30.20R
KINSTON        CLEAR     63  54  72 NW3       30.20R
NEW BERN       CLEAR     65  60  84 CALM      30.19R
RICHLANDS      CLEAR     63  58  83 CALM      30.19R
ROCKY MOUNT    CLEAR     61  57  87 CALM      30.20R
WASHINGTON     CLEAR     64  57  77 CALM      30.20R
WHITEVILLE     CLEAR     66  55  66 CALM      30.18R

$$

AMZ130-135-150-152-154-156-158-170-250-252-270-ANZ085-086-088-633-658-670-210000-
MARINE OBSERVATIONS

STATION/POSITION TIME  TEMP    WIND        PRES    WAVE   SWELL
                       AIR SEA DIR/SP/G            HT/PER HT/PER
                 (UTC) (F)     (DEG/KT/KT) (MB)    (FT/S) (FT/S)
CHESAPEAKE LIGHT NOT AVBL
64 E VA BEACH    2250   67 68  360/  8/  8 1022.7    3/ 8   3/ 8
DUCK             2300   68 70   60/  2/  2 1022.1
2 E DUCK         2300      70                N/A     2/ 8
OREGON INLET     2300   67 69   20/  3/  4 1022.5
13E OREGON INLT  2248      72                N/A     3/ 8   3/ 8
HATTERAS CG      2300   69 71   30/  1/  2 1022.5
DIAMOND BUOY     2250   73 81   30/  4/  6 1022.3    3/ 9   3/ 9
CAPE LOOKOUT     2300   72     150/  4/  4 1022.2
BEAUFORT LAB     2300   70 72  150/  4/  4 1022.6
30 SE NEW RVR IN 2308   72     140/  2/  6 1022.3
30 SE NEW RVR IN NOT AVBL
27 SE WRIGHTSVLE 2308   73 76  140/  4/  8 1022.4
5 SE WRIGHTSVLE  2308   73 74  180/  8/ 12 1022.2
225 S CAPE HAT   2250   77 80   50/ 12/ 14 1020.7    5/ 8   3/ 8
41 SE CHARLESTON 2310   74 80   40/  6/ 10 1021.9

$$



USA.gov is the U.S. government's official web portal to all federal, state and local government web resources and services.